contact:dominique.lefevre@mio.osupytheas.fr, maurice.libes@osupytheas.fr, didier.mallarino@osupytheas.fr
Project:EMSO http://www.emso-fr.org/EMSO-France
Depth: 2436.0 m
Title:EMSO Ligure Ouest : Data MII capteur AQUADOPP
Date,Latitude,Longitude,X_East,Y_North,Z_Up,Amplitude_X,Amplitude_Y,Amplitude_Z,Batterie,SoundSpeed,Heading,Pitch,Roll,Pressure,TIS,Speed,Direction
, degrees North, degrees East, m.s-1, m.s-1,m.s-1, 1, 1, 1, Volt, m.s-1, degree, degree, degree, dbar, degree_C, m.s-1, degree
2020-01-14T00:04:03,42.805,6.029,-0.032,0.033,-0.033,107.0,107.0,103.0,13.3,1505.3,323.5,-0.8,1.8,2470.244,13.32,0.045,315.9
2020-01-14T00:07:03,42.805,6.029,-0.018,0.001,-0.049,106.0,109.0,103.0,13.4,1505.3,328.4,-0.7,1.8,2470.197,13.32,0.018,273.2
2020-01-14T00:10:03,42.805,6.029,-0.033,0.002,-0.042,107.0,110.0,103.0,13.4,1505.3,326.5,-0.7,1.8,2470.234,13.33,0.033,273.5
2020-01-14T00:13:03,42.805,6.029,-0.03,0.015,-0.026,107.0,109.0,103.0,13.3,1505.3,324.2,-0.8,1.8,2470.198,13.33,0.033,296.6
2020-01-14T00:16:03,42.805,6.029,-0.01,0.011,-0.035,105.0,110.0,103.0,13.4,1505.3,324.4,-0.8,1.8,2470.241,13.33,0.014,317.7
2020-01-14T00:19:03,42.805,6.029,-0.031,0.021,-0.024,107.0,109.0,104.0,13.3,1505.3,324.0,-0.7,1.8,2470.176,13.33,0.037,304.1
2020-01-14T00:22:03,42.805,6.029,-0.054,0.0,-0.038,106.0,109.0,103.0,13.4,1505.3,328.4,-0.7,1.9,2470.172,13.33,0.053,270.0
2020-01-14T00:25:03,42.805,6.029,-0.014,0.014,-0.028,107.0,111.0,104.0,13.4,1505.3,325.1,-0.7,1.8,2470.165,13.33,0.019,315.0
2020-01-14T00:28:03,42.805,6.029,-0.009,0.006,-0.052,107.0,110.0,103.0,13.4,1505.3,325.7,-0.7,1.8,2470.169,13.33,0.01,303.7
2020-01-14T00:31:03,42.805,6.029,-0.017,0.013,-0.021,108.0,110.0,104.0,13.4,1505.4,328.2,-0.7,1.8,2470.144,13.34,0.021,307.4
2020-01-14T00:34:03,42.805,6.029,-0.013,0.011,0.012,106.0,110.0,104.0,13.3,1505.4,326.5,-0.7,1.8,2470.19,13.34,0.017,310.2
2020-01-14T00:37:03,42.805,6.029,-0.008,0.013,-0.023,107.0,111.0,103.0,13.4,1505.3,326.8,-0.7,1.9,2470.209,13.33,0.015,328.4
2020-01-14T00:43:03,42.805,6.029,-0.033,0.024,-0.025,108.0,110.0,103.0,13.4,1505.3,324.7,-0.8,1.8,2470.203,13.32,0.04,306.0
2020-01-14T00:46:03,42.805,6.029,-0.013,-0.001,-0.019,106.0,110.0,103.0,13.4,1505.3,324.7,-0.7,1.8,2470.236,13.32,0.013,265.6
2020-01-14T00:49:03,42.805,6.029,-0.036,0.016,0.0,105.0,109.0,103.0,13.3,1505.3,323.4,-0.7,1.8,2470.179,13.33,0.039,294.0
2020-01-14T00:52:03,42.805,6.029,-0.03,0.0,-0.06,107.0,111.0,104.0,13.3,1505.3,326.2,-0.7,1.8,2470.144,13.33,0.03,270.0
2020-01-14T00:55:03,42.805,6.029,-0.007,0.028,-0.02,108.0,108.0,103.0,13.4,1505.3,327.7,-0.7,1.8,2470.158,13.33,0.028,346.0
2020-01-14T00:58:03,42.805,6.029,-0.016,0.022,0.008,105.0,110.0,103.0,13.4,1505.3,323.5,-0.7,1.8,2470.165,13.33,0.027,324.0
2020-01-14T01:04:03,42.805,6.029,-0.023,0.017,-0.029,107.0,111.0,106.0,13.4,1505.3,328.4,-0.7,1.8,2470.226,13.31,0.028,306.5
2020-01-14T01:07:03,42.805,6.029,-0.03,0.003,-0.039,106.0,111.0,104.0,13.3,1505.3,324.0,-0.7,1.8,2470.156,13.32,0.03,275.7
2020-01-14T01:10:03,42.805,6.029,-0.027,0.029,-0.021,107.0,110.0,104.0,13.4,1505.3,324.8,-0.7,1.8,2470.154,13.33,0.039,317.0
2020-01-14T01:13:03,42.805,6.029,0.002,0.037,-0.022,107.0,111.0,104.0,13.3,1505.3,326.1,-0.7,1.8,2470.159,13.33,0.037,3.1
2020-01-14T01:16:03,42.805,6.029,-0.002,0.012,-0.031,107.0,110.0,103.0,13.4,1505.3,325.8,-0.7,1.8,2470.169,13.33,0.012,350.5
2020-01-14T01:19:03,42.805,6.029,-0.026,0.018,-0.031,107.0,110.0,102.0,13.4,1505.3,325.3,-0.7,1.9,2470.153,13.33,0.031,304.7
2020-01-14T01:22:03,42.805,6.029,-0.005,0.02,-0.044,107.0,110.0,103.0,13.3,1505.3,327.6,-0.7,1.8,2470.15,13.33,0.02,346.0
2020-01-14T01:25:03,42.805,6.029,-0.023,0.006,-0.036,108.0,110.0,103.0,13.4,1505.3,327.3,-0.7,1.8,2470.164,13.33,0.023,284.6
2020-01-14T01:28:03,42.805,6.029,-0.011,0.017,-0.013,106.0,109.0,103.0,13.4,1505.3,325.0,-0.7,1.8,2470.198,13.33,0.02,327.1
2020-01-14T01:31:03,42.805,6.029,-0.005,0.011,-0.013,107.0,110.0,103.0,13.4,1505.3,323.9,-0.7,1.8,2470.165,13.33,0.012,335.6
2020-01-14T01:34:03,42.805,6.029,-0.033,0.014,-0.026,108.0,110.0,103.0,13.4,1505.3,323.1,-0.7,1.9,2470.169,13.33,0.035,293.0
2020-01-14T01:37:03,42.805,6.029,-0.038,-0.01,-0.044,106.0,110.0,103.0,13.4,1505.3,325.1,-0.7,1.9,2470.18,13.33,0.039,255.3
2020-01-14T01:40:03,42.805,6.029,-0.005,0.01,-0.054,107.0,110.0,104.0,13.4,1505.3,325.4,-0.7,1.8,2470.119,13.33,0.011,333.4
2020-01-14T01:43:03,42.805,6.029,-0.037,0.014,-0.005,106.0,109.0,103.0,13.4,1505.3,327.0,-0.7,1.8,2470.125,13.33,0.039,290.7
2020-01-14T01:46:03,42.805,6.029,-0.016,0.005,-0.006,107.0,110.0,103.0,13.3,1505.3,326.6,-0.7,1.8,2470.154,13.33,0.016,287.4
2020-01-14T01:49:03,42.805,6.029,-0.009,0.022,-0.027,108.0,110.0,103.0,13.3,1505.3,328.5,-0.7,1.8,2470.103,13.33,0.023,337.8
2020-01-14T01:52:03,42.805,6.029,-0.013,0.007,-0.036,106.0,108.0,103.0,13.3,1505.3,324.6,-0.7,1.8,2470.108,13.33,0.014,298.3
2020-01-14T01:58:03,42.805,6.029,0.002,-0.006,0.001,107.0,109.0,104.0,13.4,1505.3,324.4,-0.8,1.8,2470.126,13.31,0.006,161.6
2020-01-14T02:04:03,42.805,6.029,-0.016,0.0,-0.015,107.0,109.0,103.0,13.3,1505.3,324.5,-0.7,1.8,2470.187,13.31,0.016,270.0
2020-01-14T02:07:03,42.805,6.029,-0.011,0.026,-0.037,106.0,109.0,102.0,13.4,1505.3,328.3,-0.7,1.8,2470.184,13.31,0.028,337.1
2020-01-14T02:10:03,42.805,6.029,-0.01,0.026,0.015,106.0,109.0,103.0,13.4,1505.3,325.0,-0.7,1.8,2470.191,13.32,0.027,339.0
2020-01-14T02:13:03,42.805,6.029,-0.002,0.016,-0.015,106.0,110.0,104.0,13.3,1505.3,323.5,-0.7,1.8,2470.22,13.33,0.016,352.9
2020-01-14T02:16:03,42.805,6.029,0.011,0.005,0.014,107.0,110.0,103.0,13.4,1505.3,327.0,-0.7,1.8,2470.157,13.33,0.012,65.6
2020-01-14T02:19:03,42.805,6.029,-0.007,0.02,-0.01,107.0,110.0,103.0,13.3,1505.3,324.1,-0.7,1.8,2470.163,13.33,0.021,340.7
2020-01-14T02:22:03,42.805,6.029,0.032,0.039,0.036,106.0,110.0,103.0,13.4,1505.3,327.1,-0.7,1.8,2470.151,13.33,0.05,39.4
2020-01-14T02:25:03,42.805,6.029,-0.019,0.018,-0.006,108.0,111.0,103.0,13.4,1505.3,327.1,-0.7,1.8,2470.115,13.33,0.026,313.5
2020-01-14T02:28:03,42.805,6.029,0.0,0.005,-0.028,107.0,111.0,104.0,13.3,1505.3,324.4,-0.7,1.8,2470.143,13.33,0.005,0.0
2020-01-14T02:31:03,42.805,6.029,0.009,0.028,0.021,107.0,111.0,105.0,13.3,1505.3,326.0,-0.7,1.8,2470.148,13.33,0.029,17.8
2020-01-14T02:34:03,42.805,6.029,0.006,0.028,-0.003,107.0,109.0,104.0,13.4,1505.3,327.2,-0.7,1.8,2470.106,13.33,0.028,12.1
2020-01-14T02:37:03,42.805,6.029,-0.015,0.032,0.011,107.0,110.0,103.0,13.3,1505.3,324.1,-0.7,1.8,2470.121,13.33,0.035,334.9
2020-01-14T02:40:03,42.805,6.029,-0.018,0.026,-0.019,108.0,110.0,103.0,13.4,1505.3,323.1,-0.7,1.8,2470.116,13.33,0.031,325.3
2020-01-14T02:43:03,42.805,6.029,-0.008,0.021,-0.001,107.0,109.0,103.0,13.4,1505.3,328.5,-0.7,1.9,2470.088,13.33,0.022,339.1
2020-01-14T02:46:03,42.805,6.029,0.0,-0.01,0.002,109.0,109.0,104.0,13.4,1505.3,325.0,-0.7,1.8,2470.087,13.33,0.01,180.0
2020-01-14T02:49:03,42.805,6.029,0.004,0.011,0.0,107.0,110.0,104.0,13.4,1505.3,324.3,-0.7,1.8,2470.101,13.33,0.011,20.0
2020-01-14T02:52:03,42.805,6.029,-0.01,0.009,-0.021,107.0,112.0,103.0,13.4,1505.3,324.7,-0.7,1.8,2470.121,13.33,0.013,312.0
2020-01-14T02:55:03,42.805,6.029,-0.024,0.018,-0.022,108.0,111.0,103.0,13.4,1505.3,324.1,-0.7,1.8,2470.106,13.33,0.03,306.9
2020-01-14T02:58:03,42.805,6.029,-0.024,0.014,-0.002,107.0,111.0,102.0,13.4,1505.3,327.7,-0.7,1.8,2470.07,13.33,0.027,300.3
2020-01-14T03:04:03,42.805,6.029,-0.029,0.007,0.0,108.0,111.0,106.0,13.3,1505.3,325.7,-0.7,1.8,2470.149,13.31,0.029,283.6
2020-01-14T03:07:03,42.805,6.029,-0.03,0.006,0.003,108.0,110.0,107.0,13.4,1505.3,324.2,-0.7,1.8,2470.134,13.32,0.03,281.3
2020-01-14T03:10:03,42.805,6.029,-0.047,0.031,-0.024,108.0,113.0,104.0,13.4,1505.3,322.8,-0.7,1.8,2470.064,13.32,0.056,303.4
2020-01-14T03:13:03,42.805,6.029,-0.042,0.017,-0.032,107.0,112.0,103.0,13.4,1505.3,324.9,-0.7,1.8,2470.097,13.33,0.045,292.0
2020-01-14T03:16:03,42.805,6.029,-0.013,0.0,-0.023,108.0,111.0,104.0,13.4,1505.3,324.7,-0.7,1.8,2470.066,13.33,0.013,270.0
2020-01-14T03:19:03,42.805,6.029,0.006,0.028,0.007,106.0,114.0,103.0,13.4,1505.3,324.7,-0.8,1.9,2470.121,13.33,0.028,12.1
2020-01-14T03:22:03,42.805,6.029,-0.013,0.021,-0.006,108.0,114.0,104.0,13.4,1505.3,327.3,-0.7,1.8,2470.111,13.33,0.024,328.2
2020-01-14T03:25:03,42.805,6.029,-0.031,0.009,-0.033,107.0,115.0,103.0,13.4,1505.3,325.4,-0.7,1.8,2470.118,13.33,0.032,286.2
2020-01-14T03:28:03,42.805,6.029,-0.019,0.008,-0.017,108.0,111.0,104.0,13.4,1505.3,328.4,-0.7,1.8,2470.109,13.33,0.02,292.8
2020-01-14T03:31:03,42.805,6.029,-0.03,0.006,0.0,108.0,112.0,104.0,13.3,1505.3,325.2,-0.7,1.8,2470.096,13.33,0.03,281.3
2020-01-14T03:34:03,42.805,6.029,0.0,0.015,-0.009,109.0,113.0,104.0,13.3,1505.3,327.5,-0.7,1.8,2470.11,13.33,0.015,0.0
2020-01-14T03:37:03,42.805,6.029,-0.042,0.037,-0.039,109.0,112.0,104.0,13.4,1505.4,325.3,-0.8,1.8,2470.08,13.34,0.055,311.4
2020-01-14T03:40:03,42.805,6.029,-0.027,0.035,-0.028,108.0,111.0,104.0,13.4,1505.4,326.6,-0.7,1.8,2470.109,13.34,0.044,322.3
2020-01-14T03:43:03,42.805,6.029,-0.026,0.015,-0.039,107.0,114.0,103.0,13.4,1505.4,327.6,-0.7,1.9,2470.08,13.34,0.03,300.0
2020-01-14T03:46:03,42.805,6.029,-0.014,0.023,-0.002,107.0,112.0,103.0,13.4,1505.4,325.5,-0.7,1.8,2470.089,13.34,0.026,328.7
2020-01-14T03:49:03,42.805,6.029,-0.023,0.013,-0.017,106.0,112.0,103.0,13.4,1505.4,325.0,-0.7,1.8,2470.079,13.34,0.026,299.5
2020-01-14T03:52:03,42.805,6.029,-0.031,0.018,-0.024,106.0,112.0,103.0,13.4,1505.4,328.3,-0.7,1.8,2470.095,13.34,0.035,300.1
2020-01-14T03:55:03,42.805,6.029,-0.008,0.029,-0.002,106.0,113.0,103.0,13.4,1505.4,324.8,-0.7,1.8,2470.076,13.34,0.03,344.6
2020-01-14T03:58:03,42.805,6.029,-0.009,0.016,-0.016,106.0,113.0,103.0,13.4,1505.4,327.2,-0.7,1.9,2470.092,13.34,0.018,330.6
2020-01-14T04:04:03,42.805,6.029,-0.009,0.019,-0.039,105.0,112.0,102.0,13.4,1505.3,327.9,-0.7,1.8,2470.125,13.32,0.021,334.7
2020-01-14T04:07:03,42.805,6.029,0.017,0.0,-0.017,108.0,111.0,103.0,13.3,1505.3,323.7,-0.7,1.9,2470.086,13.33,0.017,90.0
2020-01-14T04:10:03,42.805,6.029,-0.008,0.014,-0.036,106.0,112.0,104.0,13.4,1505.3,323.3,-0.7,1.8,2470.089,13.33,0.016,330.3
2020-01-14T04:13:03,42.805,6.029,-0.018,0.037,-0.018,105.0,113.0,103.0,13.4,1505.3,324.8,-0.7,1.8,2470.128,13.33,0.041,334.1
2020-01-14T04:16:03,42.805,6.029,-0.033,0.014,-0.059,106.0,112.0,103.0,13.4,1505.4,324.5,-0.7,1.8,2470.105,13.34,0.035,293.0
2020-01-14T04:19:03,42.805,6.029,-0.01,0.032,-0.01,107.0,113.0,102.0,13.4,1505.4,326.6,-0.7,1.8,2470.103,13.34,0.033,342.6
2020-01-14T04:22:03,42.805,6.029,-0.017,0.018,0.021,106.0,114.0,103.0,13.3,1505.4,325.3,-0.7,1.9,2470.137,13.34,0.024,316.6
2020-01-14T04:25:03,42.805,6.029,-0.007,0.022,-0.026,106.0,114.0,103.0,13.4,1505.4,323.9,-0.7,1.8,2470.037,13.34,0.023,342.4
2020-01-14T04:28:03,42.805,6.029,-0.026,0.025,-0.031,105.0,113.0,103.0,13.3,1505.4,324.3,-0.7,1.8,2470.07,13.34,0.036,313.9
2020-01-14T04:31:03,42.805,6.029,-0.013,0.036,0.02,106.0,111.0,102.0,13.4,1505.4,327.9,-0.7,1.8,2470.111,13.34,0.038,340.1
2020-01-14T04:34:03,42.805,6.029,-0.015,0.029,-0.002,106.0,112.0,103.0,13.4,1505.4,325.0,-0.7,1.8,2470.089,13.34,0.032,332.6
2020-01-14T04:37:03,42.805,6.029,-0.025,0.023,-0.034,105.0,115.0,104.0,13.4,1505.4,323.9,-0.7,1.9,2470.093,13.34,0.033,312.6
2020-01-14T04:40:03,42.805,6.029,-0.007,0.028,-0.012,106.0,113.0,103.0,13.3,1505.4,328.0,-0.7,1.8,2470.061,13.34,0.028,346.0
2020-01-14T04:43:03,42.805,6.029,-0.022,0.012,-0.039,106.0,113.0,105.0,13.3,1505.4,325.3,-0.8,1.8,2470.147,13.34,0.025,298.6
2020-01-14T04:46:03,42.805,6.029,-0.014,0.016,-0.039,107.0,112.0,103.0,13.4,1505.4,325.4,-0.7,1.9,2470.122,13.34,0.021,318.8
2020-01-14T04:49:03,42.805,6.029,-0.031,0.024,-0.003,106.0,112.0,105.0,13.4,1505.4,323.0,-0.7,1.8,2470.099,13.34,0.039,307.7
2020-01-14T04:52:03,42.805,6.029,-0.042,0.013,0.002,106.0,113.0,104.0,13.4,1505.4,326.8,-0.7,1.8,2470.066,13.34,0.043,287.2
2020-01-14T04:55:03,42.805,6.029,-0.03,-0.001,-0.032,107.0,113.0,103.0,13.4,1505.4,324.4,-0.7,1.9,2470.096,13.34,0.03,268.1
2020-01-14T04:58:03,42.805,6.029,-0.011,0.028,0.006,108.0,112.0,104.0,13.3,1505.4,324.5,-0.7,1.8,2470.091,13.34,0.03,338.6
2020-01-14T05:04:03,42.805,6.029,0.004,0.024,0.003,107.0,112.0,104.0,13.4,1505.3,325.5,-0.8,1.8,2470.167,13.32,0.024,9.5
2020-01-14T05:07:03,42.805,6.029,-0.03,0.034,-0.017,105.0,115.0,103.0,13.4,1505.3,326.7,-0.7,1.8,2470.123,13.33,0.045,318.6
2020-01-14T05:10:03,42.805,6.029,-0.02,0.008,-0.009,106.0,113.0,103.0,13.3,1505.3,325.0,-0.7,1.8,2470.142,13.33,0.021,291.8
2020-01-14T05:13:03,42.805,6.029,0.014,0.012,-0.011,105.0,113.0,103.0,13.4,1505.3,325.7,-0.7,1.9,2470.144,13.33,0.018,49.4
2020-01-14T05:16:03,42.805,6.029,-0.028,0.024,-0.024,107.0,114.0,103.0,13.4,1505.3,326.4,-0.7,1.8,2470.149,13.33,0.036,310.6
2020-01-14T05:19:03,42.805,6.029,-0.028,0.014,-0.038,105.0,113.0,103.0,13.4,1505.3,324.9,-0.7,1.8,2470.147,13.33,0.031,296.6
2020-01-14T05:22:03,42.805,6.029,-0.005,0.026,-0.019,107.0,113.0,104.0,13.3,1505.4,326.4,-0.7,1.8,2470.097,13.34,0.026,349.1
2020-01-14T05:25:03,42.805,6.029,-0.031,0.012,0.007,108.0,111.0,103.0,13.4,1505.4,323.8,-0.7,1.8,2470.16,13.34,0.033,291.2
2020-01-14T05:28:03,42.805,6.029,-0.01,0.009,-0.006,108.0,114.0,103.0,13.4,1505.4,324.5,-0.7,1.9,2470.123,13.34,0.013,312.0
2020-01-14T05:31:03,42.805,6.029,-0.006,0.039,-0.009,108.0,114.0,103.0,13.4,1505.4,328.5,-0.7,1.9,2470.169,13.34,0.039,351.3
2020-01-14T05:34:03,42.805,6.029,-0.021,0.015,-0.027,107.0,112.0,103.0,13.3,1505.4,326.4,-0.7,1.8,2470.13,13.34,0.025,305.5
2020-01-14T05:37:03,42.805,6.029,-0.015,0.028,0.006,106.0,114.0,103.0,13.4,1505.4,327.9,-0.7,1.8,2470.183,13.34,0.031,331.8
2020-01-14T05:40:03,42.805,6.029,-0.016,0.04,-0.035,106.0,112.0,104.0,13.4,1505.4,326.5,-0.7,1.8,2470.158,13.34,0.043,338.2
2020-01-14T05:43:03,42.805,6.029,-0.023,0.01,-0.005,107.0,114.0,104.0,13.4,1505.4,327.8,-0.7,1.8,2470.146,13.34,0.025,293.5
2020-01-14T05:46:03,42.805,6.029,-0.023,0.019,-0.023,106.0,114.0,103.0,13.4,1505.4,324.2,-0.7,1.8,2470.166,13.34,0.029,309.6
2020-01-14T05:49:03,42.805,6.029,-0.006,0.014,-0.014,106.0,112.0,103.0,13.4,1505.4,325.0,-0.7,1.8,2470.154,13.34,0.015,336.8
2020-01-14T05:52:03,42.805,6.029,0.0,0.031,-0.018,106.0,112.0,103.0,13.4,1505.4,323.6,-0.8,1.8,2470.186,13.34,0.03,0.0
2020-01-14T05:55:03,42.805,6.029,-0.006,0.029,-0.018,105.0,112.0,103.0,13.4,1505.4,326.8,-0.7,1.9,2470.15,13.34,0.029,348.3
2020-01-14T05:58:03,42.805,6.029,-0.048,0.04,-0.025,107.0,113.0,103.0,13.4,1505.4,323.0,-0.7,1.9,2470.172,13.34,0.062,309.8
2020-01-14T06:04:03,42.805,6.029,-0.007,0.021,-0.035,108.0,111.0,103.0,13.3,1505.3,323.6,-0.8,1.8,2470.186,13.32,0.022,341.6
2020-01-14T06:07:03,42.805,6.029,-0.042,0.025,-0.039,108.0,112.0,104.0,13.3,1505.3,326.9,-0.8,1.9,2470.199,13.32,0.048,300.8
2020-01-14T06:10:03,42.805,6.029,-0.013,0.011,-0.005,108.0,111.0,104.0,13.4,1505.3,327.0,-0.8,1.9,2470.175,13.33,0.017,310.2
2020-01-14T06:13:03,42.805,6.029,-0.028,0.022,-0.041,107.0,113.0,103.0,13.4,1505.3,326.3,-0.7,1.8,2470.18,13.33,0.035,308.2
2020-01-14T06:16:03,42.805,6.029,0.01,0.029,-0.018,107.0,112.0,103.0,13.4,1505.3,327.4,-0.7,1.8,2470.223,13.33,0.03,19.0
2020-01-14T06:19:03,42.805,6.029,-0.034,0.009,-0.015,107.0,110.0,103.0,13.4,1505.3,325.5,-0.7,1.8,2470.208,13.33,0.035,284.8
2020-01-14T06:22:03,42.805,6.029,-0.011,0.023,-0.013,108.0,112.0,103.0,13.4,1505.4,325.3,-0.7,1.8,2470.219,13.34,0.025,334.4
2020-01-14T06:25:03,42.805,6.029,-0.019,0.019,-0.016,108.0,111.0,104.0,13.4,1505.4,328.2,-0.7,1.9,2470.184,13.34,0.026,315.0
2020-01-14T06:28:03,42.805,6.029,-0.04,0.034,-0.039,106.0,113.0,103.0,13.3,1505.4,326.0,-0.7,1.8,2470.166,13.34,0.052,310.4
2020-01-14T06:31:03,42.805,6.029,-0.016,0.027,-0.01,107.0,114.0,103.0,13.4,1505.4,328.4,-0.7,1.8,2470.234,13.34,0.031,329.3
2020-01-14T06:34:03,42.805,6.029,-0.006,0.0,-0.055,107.0,111.0,104.0,13.4,1505.4,326.6,-0.7,1.9,2470.213,13.34,0.006,270.0
2020-01-14T06:37:03,42.805,6.029,0.009,0.007,-0.002,107.0,112.0,103.0,13.4,1505.4,328.2,-0.7,1.8,2470.218,13.34,0.011,52.1
2020-01-14T06:40:03,42.805,6.029,-0.006,0.028,-0.012,106.0,113.0,103.0,13.4,1505.4,326.9,-0.7,1.9,2470.243,13.34,0.028,347.9
2020-01-14T06:43:03,42.805,6.029,-0.007,0.023,0.001,107.0,112.0,104.0,13.4,1505.4,326.0,-0.7,1.9,2470.263,13.34,0.024,343.1
2020-01-14T06:46:03,42.805,6.029,-0.021,0.033,-0.021,107.0,111.0,105.0,13.4,1505.4,324.4,-0.7,1.8,2470.22,13.34,0.039,327.5
2020-01-14T06:49:03,42.805,6.029,-0.004,0.037,-0.046,106.0,112.0,104.0,13.4,1505.4,327.6,-0.7,1.8,2470.217,13.34,0.037,353.8
2020-01-14T06:52:03,42.805,6.029,-0.007,0.02,-0.019,107.0,112.0,102.0,13.4,1505.4,325.9,-0.7,1.8,2470.224,13.34,0.021,340.7
2020-01-14T06:55:03,42.805,6.029,-0.007,0.008,0.006,107.0,112.0,103.0,13.4,1505.4,327.8,-0.7,1.8,2470.238,13.34,0.01,318.8
2020-01-14T06:58:03,42.805,6.029,-0.006,0.024,-0.029,106.0,112.0,103.0,13.4,1505.4,327.3,-0.7,1.9,2470.249,13.34,0.024,346.0
2020-01-14T07:04:03,42.805,6.029,-0.004,0.027,-0.023,106.0,112.0,103.0,13.4,1505.3,325.9,-0.7,1.8,2470.291,13.32,0.027,351.6
2020-01-14T07:07:03,42.805,6.029,-0.016,0.013,-0.054,106.0,112.0,104.0,13.4,1505.3,327.8,-0.7,1.8,2470.263,13.32,0.02,309.1
2020-01-14T07:10:03,42.805,6.029,0.017,0.012,-0.002,108.0,111.0,103.0,13.4,1505.3,324.0,-0.7,1.9,2470.266,13.33,0.02,54.8
2020-01-14T07:13:03,42.805,6.029,-0.001,0.002,-0.014,105.0,112.0,103.0,13.4,1505.3,326.4,-0.7,1.8,2470.309,13.33,0.002,333.4
2020-01-14T07:16:03,42.805,6.029,-0.027,0.017,-0.014,107.0,112.0,103.0,13.3,1505.3,327.8,-0.7,1.8,2470.3,13.33,0.031,302.2
2020-01-14T07:19:03,42.805,6.029,-0.002,0.03,0.015,107.0,112.0,102.0,13.4,1505.3,323.3,-0.7,1.8,2470.257,13.33,0.03,356.2
2020-01-14T07:22:03,42.805,6.029,-0.018,0.024,-0.039,106.0,113.0,103.0,13.4,1505.4,325.8,-0.7,1.8,2470.314,13.34,0.03,323.1
2020-01-14T07:25:03,42.805,6.029,-0.023,0.015,-0.039,108.0,110.0,104.0,13.4,1505.4,326.0,-0.7,1.8,2470.294,13.34,0.027,303.1
2020-01-14T07:28:03,42.805,6.029,-0.01,0.016,-0.019,105.0,111.0,104.0,13.4,1505.4,327.0,-0.7,1.8,2470.308,13.34,0.018,328.0
2020-01-14T07:31:03,42.805,6.029,-0.014,0.021,-0.049,105.0,111.0,103.0,13.3,1505.4,326.1,-0.7,1.8,2470.3,13.34,0.025,326.3
2020-01-14T07:34:03,42.805,6.029,-0.021,0.007,-0.017,107.0,111.0,103.0,13.4,1505.4,325.0,-0.7,1.8,2470.347,13.34,0.022,288.4
2020-01-14T07:37:03,42.805,6.029,-0.014,0.028,-0.029,108.0,113.0,102.0,13.3,1505.4,328.4,-0.7,1.8,2470.307,13.34,0.031,333.4
2020-01-14T07:40:03,42.805,6.029,-0.008,0.021,0.0,106.0,112.0,103.0,13.4,1505.4,325.8,-0.7,1.9,2470.313,13.34,0.022,339.1
2020-01-14T07:43:03,42.805,6.029,-0.013,0.03,-0.04,106.0,113.0,103.0,13.3,1505.4,323.0,-0.8,1.8,2470.331,13.34,0.032,336.6
2020-01-14T07:46:03,42.805,6.029,-0.033,-0.005,-0.03,106.0,114.0,104.0,13.4,1505.4,325.4,-0.7,1.8,2470.327,13.34,0.033,261.4
2020-01-14T07:49:03,42.805,6.029,-0.021,0.026,-0.007,107.0,112.0,104.0,13.3,1505.4,323.7,-0.7,1.8,2470.32,13.34,0.033,321.1
2020-01-14T07:52:03,42.805,6.029,-0.008,0.017,-0.027,106.0,111.0,104.0,13.4,1505.4,328.4,-0.7,1.8,2470.359,13.34,0.018,334.8
2020-01-14T07:55:03,42.805,6.029,-0.002,0.033,-0.02,106.0,112.0,104.0,13.4,1505.4,327.9,-0.7,1.8,2470.347,13.34,0.033,356.5
2020-01-14T07:58:03,42.805,6.029,-0.011,0.027,-0.012,107.0,111.0,104.0,13.4,1505.4,324.9,-0.7,1.8,2470.287,13.34,0.029,337.8
2020-01-14T08:04:03,42.805,6.029,0.004,0.033,0.0,109.0,112.0,104.0,13.4,1505.3,325.8,-0.7,1.8,2470.365,13.32,0.033,6.9
2020-01-14T08:07:03,42.805,6.029,-0.003,0.022,-0.011,107.0,112.0,104.0,13.4,1505.3,325.9,-0.7,1.8,2470.355,13.32,0.022,352.2
2020-01-14T08:10:03,42.805,6.029,-0.036,0.034,-0.009,108.0,112.0,103.0,13.3,1505.3,327.1,-0.7,1.9,2470.35,13.33,0.049,313.4
2020-01-14T08:13:03,42.805,6.029,-0.002,0.02,-0.003,106.0,112.0,103.0,13.4,1505.3,324.9,-0.7,1.8,2470.386,13.33,0.02,354.3
2020-01-14T08:16:03,42.805,6.029,-0.007,0.03,-0.01,107.0,113.0,103.0,13.4,1505.3,325.2,-0.7,1.8,2470.36,13.33,0.03,346.9
2020-01-14T08:19:03,42.805,6.029,-0.016,0.019,-0.039,108.0,113.0,103.0,13.4,1505.3,324.3,-0.7,1.8,2470.362,13.33,0.024,319.9
2020-01-14T08:22:03,42.805,6.029,-0.02,0.021,-0.023,106.0,113.0,103.0,13.4,1505.3,322.7,-0.8,1.8,2470.371,13.33,0.028,316.4
2020-01-14T08:25:03,42.805,6.029,-0.02,0.023,-0.024,107.0,111.0,103.0,13.3,1505.3,326.4,-0.8,1.8,2470.355,13.33,0.03,319.0
2020-01-14T08:28:03,42.805,6.029,0.004,0.023,-0.017,107.0,114.0,103.0,13.3,1505.3,327.1,-0.7,1.8,2470.392,13.33,0.023,9.9
2020-01-14T08:31:03,42.805,6.029,0.003,0.03,-0.008,107.0,113.0,104.0,13.3,1505.3,323.5,-0.7,1.8,2470.333,13.33,0.03,5.7
2020-01-14T08:34:03,42.805,6.029,-0.026,0.043,-0.025,106.0,112.0,102.0,13.3,1505.3,323.5,-0.7,1.8,2470.369,13.33,0.05,328.8
2020-01-14T08:37:03,42.805,6.029,-0.03,0.033,0.003,105.0,112.0,103.0,13.3,1505.3,325.5,-0.7,1.8,2470.376,13.33,0.044,317.7
2020-01-14T08:40:03,42.805,6.029,-0.003,0.028,-0.013,107.0,114.0,103.0,13.4,1505.3,323.3,-0.7,1.8,2470.36,13.33,0.028,353.9
2020-01-14T08:43:03,42.805,6.029,-0.019,0.017,-0.029,107.0,114.0,103.0,13.4,1505.3,326.6,-0.7,1.8,2470.39,13.33,0.025,311.8
2020-01-14T08:46:03,42.805,6.029,-0.008,0.028,-0.01,107.0,113.0,104.0,13.4,1505.3,326.3,-0.7,1.8,2470.397,13.33,0.029,344.1
2020-01-14T08:49:03,42.805,6.029,-0.008,0.028,0.004,107.0,113.0,103.0,13.3,1505.3,327.9,-0.7,1.8,2470.355,13.33,0.029,344.1
2020-01-14T08:52:03,42.805,6.029,-0.011,0.052,-0.035,106.0,112.0,103.0,13.3,1505.3,323.7,-0.7,1.9,2470.367,13.33,0.053,348.1
2020-01-14T08:55:03,42.805,6.029,0.012,0.047,-0.025,106.0,113.0,103.0,13.4,1505.3,326.6,-0.7,1.8,2470.378,13.33,0.048,14.3
2020-01-14T08:58:03,42.805,6.029,0.013,0.018,-0.013,107.0,113.0,102.0,13.3,1505.3,328.2,-0.7,1.8,2470.413,13.33,0.022,35.8
2020-01-14T09:04:03,42.805,6.029,-0.007,0.017,-0.054,105.0,113.0,104.0,13.3,1505.3,325.9,-0.7,1.8,2470.405,13.31,0.018,337.6
2020-01-14T09:07:03,42.805,6.029,-0.01,0.037,-0.038,106.0,112.0,103.0,13.3,1505.3,326.4,-0.7,1.8,2470.425,13.32,0.038,344.9
2020-01-14T09:10:03,42.805,6.029,0.0,0.03,0.015,107.0,114.0,103.0,13.3,1505.3,325.5,-0.7,1.8,2470.35,13.33,0.03,0.0
2020-01-14T09:13:03,42.805,6.029,-0.027,0.019,-0.022,106.0,113.0,102.0,13.3,1505.3,327.2,-0.7,1.8,2470.455,13.33,0.033,305.1
2020-01-14T09:16:03,42.805,6.029,-0.016,0.035,0.006,107.0,112.0,103.0,13.3,1505.3,328.1,-0.7,1.8,2470.391,13.33,0.038,335.4
2020-01-14T09:19:03,42.805,6.029,0.005,0.016,-0.02,106.0,113.0,103.0,13.3,1505.3,326.7,-0.7,1.8,2470.385,13.33,0.016,17.4
2020-01-14T09:22:03,42.805,6.029,-0.011,0.03,-0.01,107.0,112.0,103.0,13.3,1505.3,328.5,-0.7,1.8,2470.407,13.33,0.031,339.9
2020-01-14T09:25:03,42.805,6.029,-0.014,0.025,-0.021,106.0,112.0,102.0,13.3,1505.3,325.9,-0.7,1.8,2470.394,13.33,0.028,330.7
2020-01-14T09:28:03,42.805,6.029,-0.011,0.027,-0.025,107.0,112.0,103.0,13.3,1505.3,327.7,-0.7,1.8,2470.424,13.33,0.029,337.8
2020-01-14T09:31:03,42.805,6.029,-0.006,0.014,-0.011,109.0,113.0,103.0,13.3,1505.3,325.9,-0.7,1.8,2470.37,13.33,0.015,336.8
2020-01-14T09:34:03,42.805,6.029,-0.006,0.04,-0.03,105.0,113.0,104.0,13.3,1505.3,327.3,-0.7,1.8,2470.392,13.33,0.04,351.5
2020-01-14T09:37:03,42.805,6.029,-0.025,0.018,0.001,105.0,113.0,103.0,13.3,1505.3,326.6,-0.7,1.8,2470.432,13.33,0.03,305.8
2020-01-14T09:40:03,42.805,6.029,0.008,0.041,-0.022,104.0,113.0,102.0,13.3,1505.4,327.4,-0.7,1.8,2470.361,13.34,0.041,11.0
2020-01-14T09:43:03,42.805,6.029,0.002,0.032,-0.01,106.0,113.0,103.0,13.3,1505.4,327.2,-0.7,1.8,2470.409,13.34,0.032,3.6
2020-01-14T09:46:03,42.805,6.029,-0.023,0.013,-0.007,106.0,113.0,102.0,13.3,1505.4,323.2,-0.7,1.8,2470.392,13.34,0.026,299.5
2020-01-14T09:49:03,42.805,6.029,0.022,0.017,-0.024,105.0,113.0,102.0,13.3,1505.4,328.1,-0.7,1.9,2470.442,13.34,0.027,52.3
2020-01-14T09:52:03,42.805,6.029,-0.001,0.01,-0.011,106.0,112.0,103.0,13.4,1505.4,326.6,-0.7,1.8,2470.405,13.34,0.01,354.3
2020-01-14T09:55:03,42.805,6.029,0.006,0.051,-0.009,105.0,112.0,102.0,13.3,1505.4,326.2,-0.7,1.8,2470.397,13.34,0.051,6.7
2020-01-14T09:58:03,42.805,6.029,0.013,0.027,-0.013,105.0,112.0,103.0,13.3,1505.4,327.1,-0.7,1.9,2470.429,13.34,0.029,25.7
2020-01-14T10:04:03,42.805,6.029,-0.001,0.039,-0.008,107.0,111.0,103.0,13.3,1505.3,323.7,-0.7,1.8,2470.443,13.32,0.039,358.5